KG5VSR Weather Reports


time (UTC)temp
F
wind
direction
speed
knots
gust
knots
rain 1hr
in
rain 24hr
in
rain mn
in
humidity
%
barometer
mb
20260507072410 56 42 0.0 0.0 0.00 0.00 0.00 91 1017.5
20260507065409 56 323 0.9 0.9 0.00 0.00 0.00 89 1017.7
20260507062405 57 61 0.9 1.7 0.00 0.00 0.00 88 1017.7
20260507055404 57 91 0.9 0.9 0.00 0.00 0.00 86 1017.8
20260507052400 59 27 0.9 0.9 0.00 0.00 0.00 86 1017.7
20260507045359 59 336 0.0 0.9 0.00 0.26 0.26 84 1017.7
20260507042355 59 39 0.0 0.9 0.00 0.26 0.26 84 1018.0
20260507035350 60 55 0.0 0.9 0.00 0.26 0.26 84 1017.9
20260507032350 60 319 0.9 0.9 0.00 0.26 0.26 85 1017.9
20260507025348 60 21 1.7 1.7 0.00 0.26 0.26 83 1017.3
20260507022347 60 354 0.9 0.9 0.00 0.26 0.26 85 1017.2
20260507015346 60 1 0.9 1.7 0.00 0.26 0.26 87 1016.4
20260507012343 60 128 1.7 2.6 0.00 0.26 0.26 88 1015.6
20260507005339 59 76 2.6 5.2 0.00 0.26 0.26 88 1015.3
20260507002334 60 61 0.9 0.9 0.00 0.26 0.26 88 1015.1
20260506235332 60 359 0.9 0.9 0.00 0.26 0.26 87 1014.5
20260506232330 60 64 0.0 0.9 0.00 0.26 0.26 87 1014.7
20260506225329 60 26 0.0 0.9 0.00 0.26 0.26 87 1014.2
20260506222325 60 334 0.0 0.9 0.00 0.26 0.26 90 1014.5
20260506215324 60 298 0.0 0.9 0.00 0.26 0.26 91 1013.8
20260506212323 62 330 0.0 0.9 0.00 0.24 0.24 82 1013.8
20260506205319 62 90 1.7 2.6 0.00 0.24 0.24 80 1013.9
20260506202314 62 70 0.9 0.9 0.00 0.24 0.24 80 1014.5
20260506195312 61 9 1.7 1.7 0.00 0.24 0.24 83 1015.1
20260506192309 58 4 3.5 4.3 0.00 0.24 0.24 86 1015.2
20260506185307 57 8 1.7 2.6 0.00 0.24 0.24 87 1015.0
20260506182306 57 343 2.6 2.6 0.00 0.24 0.24 88 1014.8
20260506175305 56 85 2.6 5.2 0.00 0.24 0.24 91 1013.6
20260506172306 55 4 0.9 1.7 0.00 0.24 0.24 96 1014.9
20260506165258 54 347 0.9 1.7 0.00 0.24 0.24 98 1014.2
20260506162255 55 306 0.9 0.9 0.00 0.24 0.24 98 1015.1
20260506155251 54 5 5.2 8.7 0.54 0.24 0.24 96 1013.9
20260506152248 54 279 0.0 0.0 0.78 0.13 0.13 92 1016.7
20260506145247 55 59 0.9 1.7 0.00 0.00 0.00 88 1015.3
20260506142244 55 325 0.0 0.9 0.00 0.00 0.00 88 1015.0
20260506135239 55 352 0.9 1.7 0.00 0.00 0.00 88 1014.1
20260506132238 55 96 1.7 2.6 0.00 0.00 0.00 86 1013.6
20260506125233 55 1 1.7 1.7 0.00 0.00 0.00 85 1013.7
20260506122229 56 348 3.5 4.3 0.00 0.00 0.00 83 1013.3
20260506115226 56 318 4.3 7.8 0.00 0.00 0.00 83 1013.0
20260506112222 57 295 2.6 2.6 0.00 0.00 0.00 81 1012.3
20260506105223 58 25 0.0 0.0 0.00 0.00 0.00 81 1011.6
20260506102219 59 326 0.9 0.9 0.00 0.00 0.00 81 1011.1
20260506095214 60 322 0.0 0.0 0.00 0.00 0.00 80 1010.8
20260506092211 59 357 0.9 0.9 0.00 0.00 0.00 80 1010.8
20260506085211 60 339 1.7 1.7 0.00 0.00 0.00 81 1010.4
20260506082208 61 321 0.9 1.7 0.00 0.00 0.00 81 1009.9